Year,Month,Day,Hour,Minute,Value (Times are PST for temperature in C)
2007,09,19,00,00,10.40
2007,09,19,00,01,10.40
2007,09,19,00,02,10.40
2007,09,19,00,03,10.40
2007,09,19,00,04,10.40
2007,09,19,00,05,10.40
2007,09,19,00,06,10.40
2007,09,19,00,07,10.40
2007,09,19,00,08,10.40
2007,09,19,00,09,10.40
2007,09,19,00,10,10.40
2007,09,19,00,11,10.40
2007,09,19,00,12,10.40
2007,09,19,00,13,10.40
2007,09,19,00,14,10.30
2007,09,19,00,15,10.30
2007,09,19,00,16,10.30
2007,09,19,00,17,10.30
2007,09,19,00,18,10.30
2007,09,19,00,19,10.30
2007,09,19,00,20,10.30
2007,09,19,00,21,10.30
2007,09,19,00,22,10.30
2007,09,19,00,23,10.30
2007,09,19,00,24,10.30
2007,09,19,00,25,10.30
2007,09,19,00,26,10.30
2007,09,19,00,27,10.30
2007,09,19,00,28,10.30
2007,09,19,00,29,10.30
2007,09,19,00,30,10.30
2007,09,19,00,31,10.30
2007,09,19,00,32,10.30
2007,09,19,00,33,10.30
2007,09,19,00,34,10.30
2007,09,19,00,35,10.30
2007,09,19,00,36,10.30
2007,09,19,00,37,10.30
2007,09,19,00,38,10.20
2007,09,19,00,39,10.20
2007,09,19,00,40,10.20
2007,09,19,00,41,10.20
2007,09,19,00,42,10.20
2007,09,19,00,43,10.20
2007,09,19,00,44,10.20
2007,09,19,00,45,10.20
2007,09,19,00,46,10.20
2007,09,19,00,47,10.20
2007,09,19,00,48,10.20
2007,09,19,00,49,10.20
2007,09,19,00,50,10.10
2007,09,19,00,51,10.10
2007,09,19,00,52,10.10
2007,09,19,00,53,10.10
2007,09,19,00,54,10.10
2007,09,19,00,55,10.10
2007,09,19,00,56,10.10
2007,09,19,00,57,10.10
2007,09,19,00,58,10.10
2007,09,19,00,59,10.10
2007,09,19,01,00,10.10
2007,09,19,01,01,10.10
2007,09,19,01,02,10.10
2007,09,19,01,03,10.10
2007,09,19,01,04,10.10
2007,09,19,01,05,10.00
2007,09,19,01,06,9.90
2007,09,19,01,07,9.90
2007,09,19,01,08,9.90
2007,09,19,01,09,9.90
2007,09,19,01,10,9.90
2007,09,19,01,11,9.90
2007,09,19,01,12,9.90
2007,09,19,01,13,9.90
2007,09,19,01,14,9.90
2007,09,19,01,15,9.90
2007,09,19,01,16,9.90
2007,09,19,01,17,9.90
2007,09,19,01,18,9.90
2007,09,19,01,19,9.90
2007,09,19,01,20,9.90
2007,09,19,01,21,9.90
2007,09,19,01,22,9.90
2007,09,19,01,23,9.80
2007,09,19,01,24,9.80
2007,09,19,01,25,9.80
2007,09,19,01,26,9.80
2007,09,19,01,27,9.80
2007,09,19,01,28,9.80
2007,09,19,01,29,9.80
2007,09,19,01,30,9.80
2007,09,19,01,31,9.70
2007,09,19,01,32,9.70
2007,09,19,01,33,9.70
2007,09,19,01,34,9.70
2007,09,19,01,35,9.70
2007,09,19,01,36,9.70
2007,09,19,01,37,9.70
2007,09,19,01,38,9.70
2007,09,19,01,39,9.70
2007,09,19,01,40,9.70
2007,09,19,01,41,9.70
2007,09,19,01,42,9.70
2007,09,19,01,43,9.70
2007,09,19,01,44,9.70
2007,09,19,01,45,9.70
2007,09,19,01,46,9.70
2007,09,19,01,47,9.70
2007,09,19,01,48,9.70
2007,09,19,01,49,9.70
2007,09,19,01,50,9.70
2007,09,19,01,51,9.70
2007,09,19,01,52,9.70
2007,09,19,01,53,9.70
2007,09,19,01,54,9.70
2007,09,19,01,55,9.70
2007,09,19,01,56,9.70
2007,09,19,01,57,9.70
2007,09,19,01,58,9.70
2007,09,19,01,59,9.70
2007,09,19,02,00,9.70
2007,09,19,02,01,9.70
2007,09,19,02,02,9.80
2007,09,19,02,03,9.80
2007,09,19,02,04,9.80
2007,09,19,02,05,9.80
2007,09,19,02,06,9.80
2007,09,19,02,07,9.90
2007,09,19,02,08,9.90
2007,09,19,02,09,9.90
2007,09,19,02,10,9.90
2007,09,19,02,11,9.90
2007,09,19,02,12,9.90
2007,09,19,02,13,9.90
2007,09,19,02,14,9.90
2007,09,19,02,15,9.90
2007,09,19,02,16,9.90
2007,09,19,02,17,9.90
2007,09,19,02,18,9.90
2007,09,19,02,19,9.90
2007,09,19,02,20,9.90
2007,09,19,02,21,9.90
2007,09,19,02,22,9.90
2007,09,19,02,23,9.90
2007,09,19,02,24,9.90
2007,09,19,02,25,9.90
2007,09,19,02,26,9.90
2007,09,19,02,27,9.90
2007,09,19,02,28,9.90
2007,09,19,02,29,9.90
2007,09,19,02,30,9.90
2007,09,19,02,31,9.90
2007,09,19,02,32,9.90
2007,09,19,02,33,9.90
2007,09,19,02,34,9.90
2007,09,19,02,35,9.90
2007,09,19,02,36,10.00
2007,09,19,02,37,10.00
2007,09,19,02,38,10.10
2007,09,19,02,39,10.10
2007,09,19,02,40,10.10
2007,09,19,02,41,10.10
2007,09,19,02,42,10.10
2007,09,19,02,43,10.10
2007,09,19,02,44,10.10
2007,09,19,02,45,10.10
2007,09,19,02,46,10.10
2007,09,19,02,47,10.10
2007,09,19,02,48,10.00
2007,09,19,02,49,9.90
2007,09,19,02,50,9.90
2007,09,19,02,51,9.90
2007,09,19,02,52,9.90
2007,09,19,02,53,9.90
2007,09,19,02,54,9.90
2007,09,19,02,55,9.90
2007,09,19,02,56,9.90
2007,09,19,02,57,9.90
2007,09,19,02,58,9.90
2007,09,19,02,59,9.80
2007,09,19,03,00,9.80
2007,09,19,03,01,9.80
2007,09,19,03,02,9.80
2007,09,19,03,03,9.80
2007,09,19,03,04,9.80
2007,09,19,03,05,9.70
2007,09,19,03,06,9.70
2007,09,19,03,07,9.70
2007,09,19,03,08,9.70
2007,09,19,03,09,9.70
2007,09,19,03,10,9.70
2007,09,19,03,11,9.70
2007,09,19,03,12,9.70
2007,09,19,03,13,9.70
2007,09,19,03,14,9.70
2007,09,19,03,15,9.60
2007,09,19,03,16,9.60
2007,09,19,03,17,9.50
2007,09,19,03,18,9.50
2007,09,19,03,19,9.50
2007,09,19,03,20,9.40
2007,09,19,03,21,9.40
2007,09,19,03,22,9.40
2007,09,19,03,23,9.30
2007,09,19,03,24,9.30
2007,09,19,03,25,9.30
2007,09,19,03,26,9.20
2007,09,19,03,27,9.20
2007,09,19,03,28,9.20
2007,09,19,03,29,9.20
2007,09,19,03,30,9.10
2007,09,19,03,31,9.10
2007,09,19,03,32,9.10
2007,09,19,03,33,9.00
2007,09,19,03,34,9.00
2007,09,19,03,35,9.00
2007,09,19,03,36,9.00
2007,09,19,03,37,9.00
2007,09,19,03,38,9.00
2007,09,19,03,39,8.90
2007,09,19,03,40,8.90
2007,09,19,03,41,8.90
2007,09,19,03,42,8.80
2007,09,19,03,43,8.80
2007,09,19,03,44,8.70
2007,09,19,03,45,8.70
2007,09,19,03,46,8.70
2007,09,19,03,47,8.70
2007,09,19,03,48,8.70
2007,09,19,03,49,8.70
2007,09,19,03,50,8.70
2007,09,19,03,51,8.60
2007,09,19,03,52,8.60
2007,09,19,03,53,8.60
2007,09,19,03,54,8.60
2007,09,19,03,55,8.60
2007,09,19,03,56,8.60
2007,09,19,03,57,8.60
2007,09,19,03,58,8.60
2007,09,19,03,59,8.50
2007,09,19,04,00,8.50
2007,09,19,04,01,8.50
2007,09,19,04,02,8.50
2007,09,19,04,03,8.50
2007,09,19,04,04,8.50
2007,09,19,04,05,8.40
2007,09,19,04,06,8.40
2007,09,19,04,07,8.40
2007,09,19,04,08,8.40
2007,09,19,04,09,8.40
2007,09,19,04,10,8.30
2007,09,19,04,11,8.30
2007,09,19,04,12,8.30
2007,09,19,04,13,8.30
2007,09,19,04,14,8.30
2007,09,19,04,15,8.30
2007,09,19,04,16,8.30
2007,09,19,04,17,8.20
2007,09,19,04,18,8.20
2007,09,19,04,19,8.20
2007,09,19,04,20,8.20
2007,09,19,04,21,8.20
2007,09,19,04,22,8.20
2007,09,19,04,23,8.20
2007,09,19,04,24,8.20
2007,09,19,04,25,8.10
2007,09,19,04,26,8.10
2007,09,19,04,27,8.00
2007,09,19,04,28,8.00
2007,09,19,04,29,7.90
2007,09,19,04,30,7.90
2007,09,19,04,31,7.90
2007,09,19,04,32,7.90
2007,09,19,04,33,7.80
2007,09,19,04,34,7.80
2007,09,19,04,35,7.80
2007,09,19,04,36,7.80
2007,09,19,04,37,7.80
2007,09,19,04,38,7.80
2007,09,19,04,39,7.80
2007,09,19,04,40,7.80
2007,09,19,04,41,7.80
2007,09,19,04,42,7.80
2007,09,19,04,43,7.80
2007,09,19,04,44,7.80
2007,09,19,04,45,7.80
2007,09,19,04,46,7.80
2007,09,19,04,47,7.80
2007,09,19,04,48,7.80
2007,09,19,04,49,7.80
2007,09,19,04,50,7.80
2007,09,19,04,51,7.80
2007,09,19,04,52,7.80
2007,09,19,04,53,7.80
2007,09,19,04,54,7.80
2007,09,19,04,55,7.80
2007,09,19,04,56,7.80
2007,09,19,04,57,7.80
2007,09,19,04,58,7.80
2007,09,19,04,59,7.80
2007,09,19,05,00,7.80
2007,09,19,05,01,7.80
2007,09,19,05,02,7.70
2007,09,19,05,03,7.70
2007,09,19,05,04,7.70
2007,09,19,05,05,7.70
2007,09,19,05,06,7.70
2007,09,19,05,07,7.70
2007,09,19,05,08,7.70
2007,09,19,05,09,7.60
2007,09,19,05,10,7.60
2007,09,19,05,11,7.60
2007,09,19,05,12,7.60
2007,09,19,05,13,7.60
2007,09,19,05,14,7.60
2007,09,19,05,15,7.60
2007,09,19,05,16,7.50
2007,09,19,05,17,7.50
2007,09,19,05,18,7.50
2007,09,19,05,19,7.50
2007,09,19,05,20,7.50
2007,09,19,05,21,7.40
2007,09,19,05,22,7.40
2007,09,19,05,23,7.40
2007,09,19,05,24,7.50
2007,09,19,05,25,7.50
2007,09,19,05,26,7.50
2007,09,19,05,27,7.50
2007,09,19,05,28,7.40
2007,09,19,05,29,7.40
2007,09,19,05,30,7.40
2007,09,19,05,31,7.30
2007,09,19,05,32,7.30
2007,09,19,05,33,7.30
2007,09,19,05,34,7.30
2007,09,19,05,35,7.30
2007,09,19,05,36,7.30
2007,09,19,05,37,7.30
2007,09,19,05,38,7.20
2007,09,19,05,39,7.20
2007,09,19,05,40,7.20
2007,09,19,05,41,7.10
2007,09,19,05,42,7.10
2007,09,19,05,43,7.10
2007,09,19,05,44,7.00
2007,09,19,05,45,7.00
2007,09,19,05,46,7.00
2007,09,19,05,47,7.00
2007,09,19,05,48,6.90
2007,09,19,05,49,6.90
2007,09,19,05,50,6.90
2007,09,19,05,51,6.90
2007,09,19,05,52,6.80
2007,09,19,05,53,6.80
2007,09,19,05,54,6.80
2007,09,19,05,55,6.80
2007,09,19,05,56,6.80
2007,09,19,05,57,6.80
2007,09,19,05,58,6.80
2007,09,19,05,59,6.80
2007,09,19,06,00,6.80
2007,09,19,06,01,6.90
2007,09,19,06,02,6.90
2007,09,19,06,03,6.90
2007,09,19,06,04,6.90
2007,09,19,06,05,6.90
2007,09,19,06,06,6.90
2007,09,19,06,07,6.90
2007,09,19,06,08,6.90
2007,09,19,06,09,6.90
2007,09,19,06,10,6.90
2007,09,19,06,11,6.90
2007,09,19,06,12,6.90
2007,09,19,06,13,6.90
2007,09,19,06,14,6.90
2007,09,19,06,15,6.80
2007,09,19,06,16,6.80
2007,09,19,06,17,6.80
2007,09,19,06,18,6.80
2007,09,19,06,19,6.70
2007,09,19,06,20,6.80
2007,09,19,06,21,6.80
2007,09,19,06,22,6.80
2007,09,19,06,23,6.80
2007,09,19,06,24,6.80
2007,09,19,06,25,6.80
2007,09,19,06,26,6.80
2007,09,19,06,27,6.80
2007,09,19,06,28,6.70
2007,09,19,06,29,6.70
2007,09,19,06,30,6.70
2007,09,19,06,31,6.70
2007,09,19,06,32,6.60
2007,09,19,06,33,6.60
2007,09,19,06,34,6.60
2007,09,19,06,35,6.60
2007,09,19,06,36,6.60
2007,09,19,06,37,6.60
2007,09,19,06,38,6.60
2007,09,19,06,39,6.60
2007,09,19,06,40,6.60
2007,09,19,06,41,6.60
2007,09,19,06,42,6.60
2007,09,19,06,43,6.60
2007,09,19,06,44,6.60
2007,09,19,06,45,6.70
2007,09,19,06,46,6.70
2007,09,19,06,47,6.70
2007,09,19,06,48,6.70
2007,09,19,06,49,6.70
2007,09,19,06,50,6.80
2007,09,19,06,51,6.80
2007,09,19,06,52,6.80
2007,09,19,06,53,6.80
2007,09,19,06,54,6.80
2007,09,19,06,55,6.80
2007,09,19,06,56,6.80
2007,09,19,06,57,6.80
2007,09,19,06,58,6.80
2007,09,19,06,59,6.80
2007,09,19,07,00,6.80
2007,09,19,07,01,6.80
2007,09,19,07,02,6.90
2007,09,19,07,03,6.90
2007,09,19,07,04,6.90
2007,09,19,07,05,6.90
2007,09,19,07,06,6.90
2007,09,19,07,07,6.90
2007,09,19,07,08,6.90
2007,09,19,07,09,6.90
2007,09,19,07,10,6.90
2007,09,19,07,11,6.80
2007,09,19,07,12,6.80
2007,09,19,07,13,6.80
2007,09,19,07,14,6.80
2007,09,19,07,15,6.90
2007,09,19,07,16,6.90
2007,09,19,07,17,6.90
2007,09,19,07,18,6.90
2007,09,19,07,19,6.90
2007,09,19,07,20,6.90
2007,09,19,07,21,6.90
2007,09,19,07,22,6.90
2007,09,19,07,23,6.90
2007,09,19,07,24,7.00
2007,09,19,07,25,7.10
2007,09,19,07,26,7.10
2007,09,19,07,27,7.20
2007,09,19,07,28,7.30
2007,09,19,07,29,7.30
2007,09,19,07,30,7.30
2007,09,19,07,31,7.30
2007,09,19,07,32,7.30
2007,09,19,07,33,7.30
2007,09,19,07,34,7.30
2007,09,19,07,35,7.30
2007,09,19,07,36,7.30
2007,09,19,07,37,7.30
2007,09,19,07,38,7.30
2007,09,19,07,39,7.30
2007,09,19,07,40,7.30
2007,09,19,07,41,7.40
2007,09,19,07,42,7.40
2007,09,19,07,43,7.50
2007,09,19,07,44,7.50
2007,09,19,07,45,7.60
2007,09,19,07,46,7.60
2007,09,19,07,47,7.70
2007,09,19,07,48,7.70
2007,09,19,07,49,7.70
2007,09,19,07,50,7.80
2007,09,19,07,51,7.80
2007,09,19,07,52,7.80
2007,09,19,07,53,7.80
2007,09,19,07,54,7.80
2007,09,19,07,55,7.90
2007,09,19,07,56,8.00
2007,09,19,07,57,8.00
2007,09,19,07,58,8.10
2007,09,19,07,59,8.20
2007,09,19,08,00,8.20
2007,09,19,08,01,8.20
2007,09,19,08,02,8.30
2007,09,19,08,03,8.40
2007,09,19,08,04,8.40
2007,09,19,08,05,8.50
2007,09,19,08,06,8.50
2007,09,19,08,07,8.60
2007,09,19,08,08,8.70
2007,09,19,08,09,8.70
2007,09,19,08,10,8.70
2007,09,19,08,11,8.70
2007,09,19,08,12,8.80
2007,09,19,08,13,8.90
2007,09,19,08,14,8.90
2007,09,19,08,15,9.00
2007,09,19,08,16,9.00
2007,09,19,08,17,9.10
2007,09,19,08,18,9.20
2007,09,19,08,19,9.20
2007,09,19,08,20,9.20
2007,09,19,08,21,9.20
2007,09,19,08,22,9.30
2007,09,19,08,23,9.40
2007,09,19,08,24,9.40
2007,09,19,08,25,9.50
2007,09,19,08,26,9.60
2007,09,19,08,27,9.70
2007,09,19,08,28,9.70
2007,09,19,08,29,9.80
2007,09,19,08,30,9.90
2007,09,19,08,31,9.90
2007,09,19,08,32,10.10
2007,09,19,08,33,10.10
2007,09,19,08,34,10.10
2007,09,19,08,35,10.20
2007,09,19,08,36,10.20
2007,09,19,08,37,10.30
2007,09,19,08,38,10.30
2007,09,19,08,39,10.40
2007,09,19,08,40,10.40
2007,09,19,08,41,10.60
2007,09,19,08,42,10.60
2007,09,19,08,43,10.70
2007,09,19,08,44,10.80
2007,09,19,08,45,10.80
2007,09,19,08,46,10.90
2007,09,19,08,47,11.00
2007,09,19,08,48,11.10
2007,09,19,08,49,11.20
2007,09,19,08,50,11.40
2007,09,19,08,51,11.50
2007,09,19,08,52,11.60
2007,09,19,08,53,11.70
2007,09,19,08,54,11.80
2007,09,19,08,55,11.80
2007,09,19,08,56,11.80
2007,09,19,08,57,11.90
2007,09,19,08,58,11.90
2007,09,19,08,59,11.90
2007,09,19,09,00,12.00
2007,09,19,09,01,12.00
2007,09,19,09,02,12.00
2007,09,19,09,03,12.00
2007,09,19,09,04,12.10
2007,09,19,09,05,12.10
2007,09,19,09,06,12.10
2007,09,19,09,07,12.20
2007,09,19,09,08,12.20
2007,09,19,09,09,12.30
2007,09,19,09,10,12.30
2007,09,19,09,11,12.30
2007,09,19,09,12,12.40
2007,09,19,09,13,12.50
2007,09,19,09,14,12.60
2007,09,19,09,15,12.60
2007,09,19,09,16,12.70
2007,09,19,09,17,12.80
2007,09,19,09,18,12.90
2007,09,19,09,19,13.00
2007,09,19,09,20,13.00
2007,09,19,09,21,13.00
2007,09,19,09,22,13.10
2007,09,19,09,23,13.10
2007,09,19,09,24,13.10
2007,09,19,09,25,13.10
2007,09,19,09,26,13.10
2007,09,19,09,27,13.20
2007,09,19,09,28,13.30
2007,09,19,09,29,13.30
2007,09,19,09,30,13.30
2007,09,19,09,31,13.30
2007,09,19,09,32,13.40
2007,09,19,09,33,13.40
2007,09,19,09,34,13.50
2007,09,19,09,35,13.60
2007,09,19,09,36,13.60
2007,09,19,09,37,13.70
2007,09,19,09,38,13.70
2007,09,19,09,39,13.70
2007,09,19,09,40,13.80
2007,09,19,09,41,13.90
2007,09,19,09,42,14.00
2007,09,19,09,43,14.00
2007,09,19,09,44,14.10
2007,09,19,09,45,14.20
2007,09,19,09,46,14.20
2007,09,19,09,47,14.30
2007,09,19,09,48,14.30
2007,09,19,09,49,14.30
2007,09,19,09,50,14.40
2007,09,19,09,51,14.40
2007,09,19,09,52,14.40
2007,09,19,09,53,14.40
2007,09,19,09,54,14.40
2007,09,19,09,55,14.30
2007,09,19,09,56,14.20
2007,09,19,09,57,14.20
2007,09,19,09,58,14.20
2007,09,19,09,59,14.20
2007,09,19,10,00,14.20
2007,09,19,10,01,14.20
2007,09,19,10,02,14.20
2007,09,19,10,03,14.20
2007,09,19,10,04,14.20
2007,09,19,10,05,14.10
2007,09,19,10,06,14.10
2007,09,19,10,07,14.10
2007,09,19,10,08,14.20
2007,09,19,10,09,14.20
2007,09,19,10,10,14.20
2007,09,19,10,11,14.30
2007,09,19,10,12,14.40
2007,09,19,10,13,14.40
2007,09,19,10,14,14.50
2007,09,19,10,15,14.50
2007,09,19,10,16,14.60
2007,09,19,10,17,14.70
2007,09,19,10,18,14.70
2007,09,19,10,19,14.80
2007,09,19,10,20,14.80
2007,09,19,10,21,14.80
2007,09,19,10,22,14.90
2007,09,19,10,23,14.90
2007,09,19,10,24,15.00
2007,09,19,10,25,15.00
2007,09,19,10,26,15.00
2007,09,19,10,27,15.00
2007,09,19,10,28,15.10
2007,09,19,10,29,15.10
2007,09,19,10,30,15.20
2007,09,19,10,31,15.30
2007,09,19,10,32,15.30
2007,09,19,10,33,15.30
2007,09,19,10,34,15.30
2007,09,19,10,35,15.30
2007,09,19,10,36,15.20
2007,09,19,10,37,15.20
2007,09,19,10,38,15.10
2007,09,19,10,39,15.10
2007,09,19,10,40,15.10
2007,09,19,10,41,15.20
2007,09,19,10,42,15.20
2007,09,19,10,43,15.20
2007,09,19,10,44,15.20
2007,09,19,10,45,15.20
2007,09,19,10,46,15.20
2007,09,19,10,47,15.10
2007,09,19,10,48,15.00
2007,09,19,10,49,14.90
2007,09,19,10,50,14.80
2007,09,19,10,51,14.80
2007,09,19,10,52,14.70
2007,09,19,10,53,14.60
2007,09,19,10,54,14.60
2007,09,19,10,55,14.60
2007,09,19,10,56,14.60
2007,09,19,10,57,14.60
2007,09,19,10,58,14.70
2007,09,19,10,59,14.80
2007,09,19,11,00,14.80
2007,09,19,11,01,14.80
2007,09,19,11,02,14.90
2007,09,19,11,03,15.00
2007,09,19,11,04,15.00
2007,09,19,11,05,15.00
2007,09,19,11,06,14.90
2007,09,19,11,07,14.90
2007,09,19,11,08,14.90
2007,09,19,11,09,14.90
2007,09,19,11,10,14.80
2007,09,19,11,11,14.80
2007,09,19,11,12,14.90
2007,09,19,11,13,14.90
2007,09,19,11,14,14.90
2007,09,19,11,15,14.90
2007,09,19,11,16,14.90
2007,09,19,11,17,15.00
2007,09,19,11,18,15.00
2007,09,19,11,19,14.90
2007,09,19,11,20,14.90
2007,09,19,11,21,14.80
2007,09,19,11,22,14.80
2007,09,19,11,23,14.90
2007,09,19,11,24,14.80
2007,09,19,11,25,14.90
2007,09,19,11,26,14.90
2007,09,19,11,27,14.90
2007,09,19,11,28,14.90
2007,09,19,11,29,14.90
2007,09,19,11,30,14.80
2007,09,19,11,31,14.80
2007,09,19,11,32,14.80
2007,09,19,11,33,14.90
2007,09,19,11,34,14.90
2007,09,19,11,35,14.90
2007,09,19,11,36,14.90
2007,09,19,11,37,14.90
2007,09,19,11,38,15.00
2007,09,19,11,39,15.00
2007,09,19,11,40,15.10
2007,09,19,11,41,15.10
2007,09,19,11,42,15.10
2007,09,19,11,43,15.10
2007,09,19,11,44,15.20
2007,09,19,11,45,15.20
2007,09,19,11,46,15.20
2007,09,19,11,47,15.20
2007,09,19,11,48,15.20
2007,09,19,11,49,15.30
2007,09,19,11,50,15.30
2007,09,19,11,51,15.30
2007,09,19,11,52,15.20
2007,09,19,11,53,15.20
2007,09,19,11,54,15.20
2007,09,19,11,55,15.20
2007,09,19,11,56,15.20
2007,09,19,11,57,15.30
2007,09,19,11,58,15.30
2007,09,19,11,59,15.30
2007,09,19,12,00,15.20
2007,09,19,12,01,15.30
2007,09,19,12,02,15.30
2007,09,19,12,03,15.30
2007,09,19,12,04,15.40
2007,09,19,12,05,15.50
2007,09,19,12,06,15.50
2007,09,19,12,07,15.50
2007,09,19,12,08,15.50
2007,09,19,12,09,15.50
2007,09,19,12,10,15.50
2007,09,19,12,11,15.50
2007,09,19,12,12,15.40
2007,09,19,12,13,15.40
2007,09,19,12,14,15.40
2007,09,19,12,15,15.50
2007,09,19,12,16,15.60
2007,09,19,12,17,15.70
2007,09,19,12,18,15.80
2007,09,19,12,19,15.80
2007,09,19,12,20,15.80
2007,09,19,12,21,15.80
2007,09,19,12,22,15.80
2007,09,19,12,23,15.80
2007,09,19,12,24,15.80
2007,09,19,12,25,15.80
2007,09,19,12,26,15.80
2007,09,19,12,27,15.80
2007,09,19,12,28,15.80
2007,09,19,12,29,15.80
2007,09,19,12,30,15.80
2007,09,19,12,31,15.80
2007,09,19,12,32,15.80
2007,09,19,12,33,15.80
2007,09,19,12,34,15.90
2007,09,19,12,35,15.90
2007,09,19,12,36,15.90
2007,09,19,12,37,15.90
2007,09,19,12,38,15.90
2007,09,19,12,39,15.90
2007,09,19,12,40,15.80
2007,09,19,12,41,15.70
2007,09,19,12,42,15.70
2007,09,19,12,43,15.60
2007,09,19,12,44,15.60
2007,09,19,12,45,15.70
2007,09,19,12,46,15.70
2007,09,19,12,47,15.70
2007,09,19,12,48,15.70
2007,09,19,12,49,15.70
2007,09,19,12,50,15.80
2007,09,19,12,51,15.80
2007,09,19,12,52,15.80
2007,09,19,12,53,15.80
2007,09,19,12,54,15.80
2007,09,19,12,55,15.80
2007,09,19,12,56,15.80
2007,09,19,12,57,15.80
2007,09,19,12,58,15.90
2007,09,19,12,59,15.90
2007,09,19,13,00,16.00
2007,09,19,13,01,16.10
2007,09,19,13,02,16.10
2007,09,19,13,03,16.10
2007,09,19,13,04,16.00
2007,09,19,13,05,15.90
2007,09,19,13,06,15.90
2007,09,19,13,07,15.90
2007,09,19,13,08,16.00
2007,09,19,13,09,16.10
2007,09,19,13,10,16.10
2007,09,19,13,11,16.20
2007,09,19,13,12,16.20
2007,09,19,13,13,16.10
2007,09,19,13,14,16.10
2007,09,19,13,15,16.10
2007,09,19,13,16,16.10
2007,09,19,13,17,16.00
2007,09,19,13,18,15.90
2007,09,19,13,19,15.90
2007,09,19,13,20,15.90
2007,09,19,13,21,16.00
2007,09,19,13,22,16.10
2007,09,19,13,23,16.10
2007,09,19,13,24,16.10
2007,09,19,13,25,16.20
2007,09,19,13,26,16.20
2007,09,19,13,27,16.20
2007,09,19,13,28,16.10
2007,09,19,13,29,16.20
2007,09,19,13,30,16.20
2007,09,19,13,31,16.30
2007,09,19,13,32,16.20
2007,09,19,13,33,16.20
2007,09,19,13,34,16.20
2007,09,19,13,35,16.20
2007,09,19,13,36,16.20
2007,09,19,13,37,16.20
2007,09,19,13,38,16.20
2007,09,19,13,39,16.30
2007,09,19,13,40,16.20
2007,09,19,13,41,16.20
2007,09,19,13,42,16.30
2007,09,19,13,43,16.40
2007,09,19,13,44,16.40
2007,09,19,13,45,16.50
2007,09,19,13,46,16.70
2007,09,19,13,47,16.80
2007,09,19,13,48,16.80
2007,09,19,13,49,16.90
2007,09,19,13,50,16.80
2007,09,19,13,51,16.80
2007,09,19,13,52,16.80
2007,09,19,13,53,16.80
2007,09,19,13,54,16.80
2007,09,19,13,55,16.80
2007,09,19,13,56,16.90
2007,09,19,13,57,16.90
2007,09,19,13,58,16.90
2007,09,19,13,59,17.00
2007,09,19,14,00,17.00
2007,09,19,14,01,17.10
2007,09,19,14,02,17.10
2007,09,19,14,03,17.00
2007,09,19,14,04,17.00
2007,09,19,14,05,16.90
2007,09,19,14,06,16.90
2007,09,19,14,07,16.90
2007,09,19,14,08,17.00
2007,09,19,14,09,17.00
2007,09,19,14,10,17.00
2007,09,19,14,11,17.10
2007,09,19,14,12,17.10
2007,09,19,14,13,17.20
2007,09,19,14,14,17.20
2007,09,19,14,15,17.20
2007,09,19,14,16,17.20
2007,09,19,14,17,17.20
2007,09,19,14,18,17.30
2007,09,19,14,19,17.30
2007,09,19,14,20,17.30
2007,09,19,14,21,17.30
2007,09,19,14,22,17.40
2007,09,19,14,23,17.40
2007,09,19,14,24,17.40
2007,09,19,14,25,17.50
2007,09,19,14,26,17.50
2007,09,19,14,27,17.40
2007,09,19,14,28,17.50
2007,09,19,14,29,17.50
2007,09,19,14,30,17.60
2007,09,19,14,31,17.60
2007,09,19,14,32,17.50
2007,09,19,14,33,17.40
2007,09,19,14,34,17.20
2007,09,19,14,35,17.10
2007,09,19,14,36,17.10
2007,09,19,14,37,17.00
2007,09,19,14,38,16.90
2007,09,19,14,39,16.90
2007,09,19,14,40,16.90
2007,09,19,14,41,16.90
2007,09,19,14,42,17.00
2007,09,19,14,43,17.00
2007,09,19,14,44,17.10
2007,09,19,14,45,17.10
2007,09,19,14,46,17.10
2007,09,19,14,47,17.00
2007,09,19,14,48,17.10
2007,09,19,14,49,17.10
2007,09,19,14,50,17.10
2007,09,19,14,51,17.10
2007,09,19,14,52,17.10
2007,09,19,14,53,17.00
2007,09,19,14,54,17.00
2007,09,19,14,55,17.00
2007,09,19,14,56,17.00
2007,09,19,14,57,16.90
2007,09,19,14,58,17.00
2007,09,19,14,59,17.10
2007,09,19,15,00,17.10
2007,09,19,15,01,17.10
2007,09,19,15,02,17.10
2007,09,19,15,03,17.20
2007,09,19,15,04,17.30
2007,09,19,15,05,17.30
2007,09,19,15,06,17.30
2007,09,19,15,07,17.30
2007,09,19,15,08,17.20
2007,09,19,15,09,17.20
2007,09,19,15,10,17.30
2007,09,19,15,11,17.20
2007,09,19,15,12,17.30
2007,09,19,15,13,17.30
2007,09,19,15,14,17.30
2007,09,19,15,15,17.30
2007,09,19,15,16,17.30
2007,09,19,15,17,17.40
2007,09,19,15,18,17.50
2007,09,19,15,19,17.70
2007,09,19,15,20,17.80
2007,09,19,15,21,17.80
2007,09,19,15,22,17.90
2007,09,19,15,23,18.10
2007,09,19,15,24,18.20
2007,09,19,15,25,18.20
2007,09,19,15,26,18.20
2007,09,19,15,27,18.20
2007,09,19,15,28,18.00
2007,09,19,15,29,17.90
2007,09,19,15,30,17.90
2007,09,19,15,31,17.90
2007,09,19,15,32,18.10
2007,09,19,15,33,18.10
2007,09,19,15,34,18.20
2007,09,19,15,35,18.10
2007,09,19,15,36,18.10
2007,09,19,15,37,17.90
2007,09,19,15,38,17.90
2007,09,19,15,39,17.90
2007,09,19,15,40,17.90
2007,09,19,15,41,17.90
2007,09,19,15,42,17.90
2007,09,19,15,43,17.90
2007,09,19,15,44,17.90
2007,09,19,15,45,17.90
2007,09,19,15,46,17.90
2007,09,19,15,47,17.90
2007,09,19,15,48,17.90
2007,09,19,15,49,17.90
2007,09,19,15,50,17.90
2007,09,19,15,51,17.90
2007,09,19,15,52,17.90
2007,09,19,15,53,18.00
2007,09,19,15,54,18.10
2007,09,19,15,55,18.10
2007,09,19,15,56,18.20
2007,09,19,15,57,18.30
2007,09,19,15,58,18.40
2007,09,19,15,59,18.50
2007,09,19,16,00,18.50
2007,09,19,16,01,18.50
2007,09,19,16,02,18.50
2007,09,19,16,03,18.50
2007,09,19,16,04,18.50
2007,09,19,16,05,18.40
2007,09,19,16,06,18.50
2007,09,19,16,07,18.50
2007,09,19,16,08,18.60
2007,09,19,16,09,18.60
2007,09,19,16,10,18.60
2007,09,19,16,11,18.60
2007,09,19,16,12,18.60
2007,09,19,16,13,18.50
2007,09,19,16,14,18.50
2007,09,19,16,15,18.60
2007,09,19,16,16,18.60
2007,09,19,16,17,18.50
2007,09,19,16,18,18.40
2007,09,19,16,19,18.40
2007,09,19,16,20,18.30
2007,09,19,16,21,18.30
2007,09,19,16,22,18.30
2007,09,19,16,23,18.40
2007,09,19,16,24,18.40
2007,09,19,16,25,18.40
2007,09,19,16,26,18.40
2007,09,19,16,27,18.50
2007,09,19,16,28,18.50
2007,09,19,16,29,18.40
2007,09,19,16,30,18.30
2007,09,19,16,31,18.30
2007,09,19,16,32,18.30
2007,09,19,16,33,18.40
2007,09,19,16,34,18.40
2007,09,19,16,35,18.50
2007,09,19,16,36,18.50
2007,09,19,16,37,18.50
2007,09,19,16,38,18.50
2007,09,19,16,39,18.50
2007,09,19,16,40,18.50
2007,09,19,16,41,18.50
2007,09,19,16,42,18.40
2007,09,19,16,43,18.40
2007,09,19,16,44,18.30
2007,09,19,16,45,18.30
2007,09,19,16,46,18.40
2007,09,19,16,47,18.40
2007,09,19,16,48,18.50
2007,09,19,16,49,18.40
2007,09,19,16,50,18.50
2007,09,19,16,51,18.50
2007,09,19,16,52,18.50
2007,09,19,16,53,18.50
2007,09,19,16,54,18.50
2007,09,19,16,55,18.50
2007,09,19,16,56,18.50
2007,09,19,16,57,18.60
2007,09,19,16,58,18.70
2007,09,19,16,59,18.70
2007,09,19,17,00,18.70
2007,09,19,17,01,18.70
2007,09,19,17,02,18.70
2007,09,19,17,03,18.70
2007,09,19,17,04,18.70
2007,09,19,17,05,18.70
2007,09,19,17,06,18.70
2007,09,19,17,07,18.70
2007,09,19,17,08,18.70
2007,09,19,17,09,18.70
2007,09,19,17,10,18.80
2007,09,19,17,11,18.80
2007,09,19,17,12,18.70
2007,09,19,17,13,18.70
2007,09,19,17,14,18.80
2007,09,19,17,15,18.80
2007,09,19,17,16,18.80
2007,09,19,17,17,18.80
2007,09,19,17,18,18.80
2007,09,19,17,19,18.80
2007,09,19,17,20,18.80
2007,09,19,17,21,18.80
2007,09,19,17,22,18.80
2007,09,19,17,23,18.80
2007,09,19,17,24,18.80
2007,09,19,17,25,18.80
2007,09,19,17,26,18.80
2007,09,19,17,27,18.80
2007,09,19,17,28,18.80
2007,09,19,17,29,18.80
2007,09,19,17,30,18.70
2007,09,19,17,31,18.70
2007,09,19,17,32,18.70
2007,09,19,17,33,18.70
2007,09,19,17,34,18.70
2007,09,19,17,35,18.80
2007,09,19,17,36,18.80
2007,09,19,17,37,18.80
2007,09,19,17,38,18.80